Hourly Data Report for June 17, 2021

SARNIA
ONTARIO
Current Station Operator: NAVCAN

42°59'58.000" N
82°18'32.000" W
181.40 m
6127510
71704
YZR

Download Data

Hourly Data (June 2021)
Hourly Data Report for June 17, 2021
TIME
LST
Temp Definition
°C
Dew Point Definition
°C
Rel Hum Definition
%
Precip. Amount Definition
mm

Wind Dir Definition
10's deg

Wind Spd Definition
km/h
Visibility Definition
km
Stn Press Definition
kPa
Hmdx Definition


Wind Chill Definition


Weather Definition


00:00 10.1 5.7 74 0.0   0 16.1 99.57     LegendNANA
01:00 9.4 5.4 76 0.0 LegendMM 4 16.1 99.57     LegendNANA
02:00 8.1 5.1 81 0.0 17 5 16.1 99.58     LegendNANA
03:00 8.1 5.0 81 0.0   0 16.1 99.54     LegendNANA
04:00 7.6 5.1 84 0.0 13 5 16.1 99.52     LegendNANA
05:00 7.5 5.1 85 0.0 14 5 16.1 99.54     LegendNANA
06:00 10.5 5.8 73 0.0 16 8 16.1 99.54     LegendNANA
07:00 14.4 6.4 58 0.0 18 9 16.1 99.51     LegendNANA
08:00 19.3 8.2 48 0.0 18 13 16.1 99.56     LegendNANA
09:00 21.0 10.7 51 0.0 21 13 16.1 99.58     LegendNANA
10:00 23.0 10.2 44 0.0 23 15 16.1 99.51     LegendNANA
11:00 24.6 10.2 40 0.0 24 17 16.1 99.48 26   LegendNANA
12:00 25.9 9.8 36 0.0 23 17 16.1 99.45 27   LegendNANA
13:00 26.4 9.0 33 0.0 27 18 16.1 99.39 27   LegendNANA
14:00 27.1 9.8 33 0.0 23 15 16.1 99.33 28   LegendNANA
15:00 27.3 9.3 32 0.0 22 9 16.1 99.28 28   LegendNANA
16:00 27.5 9.4 32 0.0 19 11 16.1 99.22 29   LegendNANA
17:00 27.7 9.5 31 0.0 20 17 16.1 99.14 29   LegendNANA
18:00 27.3 10.5 34 0.0 21 15 16.1 99.15 29   LegendNANA
19:00 26.2 9.8 35 0.0 20 15 16.1 99.14 27   LegendNANA
20:00 23.7 10.6 43 0.0 18 13 16.1 99.05 25   LegendNANA
21:00 21.6 10.9 50 0.0 19 13 16.1 99.14     LegendNANA
22:00 19.7 10.8 56 0.0 19 13 16.1 99.07     LegendNANA
23:00 19.3 10.9 58 0.0 20 13 16.1 99.14     LegendNANA

Notes on Data Quality.

Legend

  • E = Estimated
  • M = Missing
  • NA = Not Available*
  • [empty] = Indicates an unobserved value
Date modified: